Find Geely Xingzuo 02 zu 08 xing

NORAD ID: 58912 Int'l Des: 2024-023 Owner: GEESP Country: CN Constellation: geesatcom operational
LEOCIRCULAR

实时位置

正在加载3D地球...

关于 Geely Xingzuo 02 zu 08 xing

正在加载描述...

即将过境

Passes for default location (London). Set your location on the main map for personalized predictions.

高度历史

Loading altitude history...

两行轨道根数

1 58912U 24023H 26136.23693082 .00000933 00000-0 14062-3 0 9998
2 58912 49.9884 141.2133 0004236 230.4707 129.5857 14.83137702124170
Epoch: May 16, 2026 • Age: 9 hours

当前状态

高度 620.2 km
速度 7.55 km/s
星下点 26.84°N, 156.05°W
发射日期 Feb 2, 2024
运行时间 2.2 years
类型 other

技术详情

分类 Payload
质量 130.00 kg
干质量 130.00 kg
总质量 130.00 kg
长度 1.00 m
直径 0.50 m
跨度 2.00 m
形状 Box + 2 pan
制造商 GWCG
平台类型 GPS100
阶段状态 In Orbit
所有者/国家 GEESP/CN

Most Searched